GEFSSE_con_cape1000_000.txt.gz
Probability
0 0 100 100 100 100 100 100 100 100 100 100 100 100 100 100 100 100 100 94 84 84 87 100 100 100 100 100 100 100 100 100 100 100 100 100 100 100 100 100 97 94 94
0 0 100 100 100 100 100 100 100 100 100 100 100 100 100 100 100 100 100 100 100 87 94 100 100 100 100 100 100 100 100 100 100 100 100 100 100 100 100 100 97 94 97
0 84 100 100 100 100 100 100 100 100 100 100 100 100 100 94 100 100 100 100 100 100 100 100 100 100 100 100 100 100 100 100 100 100 100 100 100 100 100 100 97 100 100
42 100 100 100 100 100 100 100 100 100 100 100 100 100 87 100 100 100 100 100 100 100 100 100 100 100 100 100 100 100 100 100 100 100 100 100 100 100 100 100 100 100 100
100 100 100 100 100 100 100 100 100 100 100 100 100 100 100 100 100 100 100 100 100 100 97 94 94 100 100 100 100 100 100 100 100 100 100 100 100 100 100 100 100 100 100
100 100 100 100 100 100 100 100 100 100 100 100 100 100 100 100 100 100 100 100 100 100 90 26 26 100 100 100 100 100 100 100 100 97 100 100 100 100 100 100 100 100 100
100 100 100 100 100 100 100 100 100 100 100 100 100 100 100 100 100 100 100 100 100 100 35 0 39 97 100 100 100 100 100 100 100 94 94 100 100 100 100 100 100 100 100
94 100 100 100 100 100 100 100 100 100 100 100 100 100 100 100 100 100 100 100 100 29 0 23 97 100 100 100 100 100 100 100 100 97 87 97 100 100 100 100 100 100 100
97 100 100 100 100 100 100 100 100 100 100 100 100 100 100 100 100 100 100 100 29 6 39 87 100 100 100 100 100 100 100 100 94 97 100 97 97 100 100 100 100 100 100
71 90 100 100 100 100 100 100 100 100 100 100 100 100 100 100 100 100 100 97 16 19 77 97 100 100 100 100 100 100 100 100 97 100 100 100 100 97 94 100 100 100 100
39 84 90 87 81 84 97 100 100 100 100 100 100 100 100 100 100 100 100 100 58 42 94 100 100 100 97 97 100 100 97 61 97 100 100 100 100 94 97 100 100 100 100
10 65 61 55 35 26 74 26 3 55 97 71 35 19 16 23 94 100 100 100 100 97 100 100 90 90 0 0 3 52 29 68 97 100 100 100 100 100 100 100 100 100 100
3 26 39 6 6 6 10 3 3 3 23 0 0 0 3 16 87 100 97 97 84 100 26 0 0 0 0 0 0 0 13 61 48 94 100 100 100 100 100 100 100 100 100
10 10 23 10 6 3 0 0 0 0 0 0 0 0 0 6 45 61 71 32 23 6 0 0 0 0 0 0 0 0 0 0 6 10 100 100 100 100 100 100 100 100 100
10 6 6 10 6 0 0 0 0 0 0 0 0 0 0 0 16 16 23 13 0 0 0 0 0 0 0 0 0 0 0 0 0 0 42 100 100 100 100 100 100 100 100
6 6 6 13 6 0 0 0 0 0 0 0 0 0 0 0 0 0 3 3 0 0 0 0 0 0 0 0 0 0 0 0 0 0 0 0 100 100 100 100 100 100 100
0 3 3 6 6 0 0 0 0 0 0 0 0 0 0 0 0 0 0 0 0 0 0 0 0 0 0 0 0 0 0 0 0 0 0 0 0 0 81 100 100 100 100
0 0 6 6 3 0 0 0 0 0 0 0 0 0 0 0 0 0 0 0 0 0 0 0 0 0 0 0 0 0 0 0 0 0 0 0 0 0 0 0 45 84 94
0 6 6 0 3 0 0 0 0 0 0 0 0 0 0 0 0 0 0 0 0 0 0 0 0 0 0 0 0 0 0 0 0 0 0 0 0 0 0 0 0 0 0
0 0 0 0 0 0 0 0 0 0 0 0 0 0 0 0 0 0 0 0 0 0 0 0 0 0 0 0 0 0 0 0 0 0 0 0 0 0 0 0 0 0 0
0 0 0 0 0 0 0 0 0 0 0 0 0 0 0 0 0 0 0 0 0 0 0 0 0 0 0 0 0 0 0 0 0 0 0 0 0 0 0 0 0 0 0
0 0 0 0 0 0 0 0 0 0 0 0 0 0 0 0 0 0 0 0 0 0 0 0 0 0 0 0 0 0 0 0 0 0 0 0 0 0 0 0 0 0 0
0 0 0 0 0 0 0 0 0 0 0 0 0 0 0 0 0 0 0 0 0 0 0 0 0 0 0 0 0 0 0 0 0 0 0 0 0 0 0 0 0 0 0
0 0 0 0 0 0 0 0 0 0 0 0 0 0 0 0 0 0 0 0 0 0 0 0 0 0 0 0 0 0 0 0 0 0 0 0 0 0 0 0 0 0 0
0 0 0 0 0 0 0 0 0 0 0 0 0 0 0 0 0 0 0 0 0 0 0 0 0 0 0 0 0 0 0 0 0 0 0 0 0 0 0 0 0 0 0
0 0 0 0 0 0 0 0 0 0 0 0 0 0 0 0 0 0 0 0 0 0 0 0 0 0 0 0 0 0 0 0 0 0 0 0 0 0 0 0 0 0 0

GEFSSE_con_cape1000_006.txt.gz
Probability
0 10 100 100 100 100 100 100 100 100 100 100 100 100 100 100 100 100 94 84 77 87 94 100 100 100 100 100 100 100 100 100 100 100 100 100 100 100 100 100 90 97 100
0 6 100 100 100 100 100 100 100 100 100 100 100 100 100 100 100 94 90 65 48 81 100 100 100 100 100 100 100 100 100 100 100 100 100 100 100 100 97 97 90 100 100
3 16 100 100 100 100 100 100 100 100 100 100 100 100 100 100 100 100 90 77 87 87 94 100 100 100 100 100 100 100 100 100 100 100 100 100 100 100 97 100 100 100 100
6 26 97 100 100 100 100 100 100 100 100 100 100 100 97 100 100 100 100 100 100 97 97 100 87 94 100 100 100 100 100 100 100 100 100 100 100 100 100 100 100 100 100
0 45 100 100 100 100 100 100 100 100 100 100 100 94 97 100 100 100 100 100 100 55 68 100 94 94 100 100 100 100 100 100 100 100 100 100 100 100 100 100 100 100 100
0 74 100 100 100 100 100 100 100 100 100 100 97 97 100 100 100 97 100 100 97 19 32 90 100 100 100 100 97 97 100 100 77 90 97 100 100 100 100 100 100 100 100
16 71 100 100 100 100 100 100 100 100 100 100 100 100 100 100 100 100 100 100 52 0 0 84 97 100 100 100 100 100 100 100 13 39 87 100 100 100 100 100 100 100 100
19 77 97 100 100 100 100 100 100 100 100 100 100 100 100 100 100 100 100 84 3 0 26 97 100 100 100 97 100 100 100 97 0 3 42 97 100 100 100 100 100 100 100
35 65 97 90 90 100 100 100 100 100 100 100 100 100 100 100 100 100 81 13 0 32 81 100 100 100 100 100 100 100 100 100 3 0 0 65 84 94 100 100 100 100 100
61 52 87 100 100 58 39 100 100 100 100 100 100 100 100 100 100 90 13 39 61 81 94 100 100 100 97 77 90 97 84 90 29 6 45 94 68 61 90 94 100 100 100
55 29 52 87 94 84 71 55 100 100 100 100 100 100 100 97 58 23 3 87 90 100 100 100 94 48 16 35 84 87 58 19 52 48 100 100 77 65 84 90 100 100 100
65 45 35 42 65 71 61 100 100 97 97 42 26 39 23 16 13 0 16 87 100 100 77 97 48 0 0 0 0 81 65 19 3 42 100 100 94 81 77 87 94 100 100
29 68 45 16 35 42 77 90 97 100 100 55 0 0 0 0 0 0 16 84 84 10 0 52 3 0 0 0 0 3 48 48 52 61 100 100 100 100 100 94 97 100 100
45 77 74 26 16 16 10 19 32 94 100 90 13 0 0 0 0 0 16 23 16 0 0 0 0 0 0 0 0 0 13 74 94 100 100 100 100 100 100 100 100 100 100
74 81 81 65 23 19 19 58 16 45 77 68 97 3 0 0 0 0 0 6 3 0 0 0 0 0 0 0 0 0 0 32 90 100 100 100 100 100 100 100 100 100 100
68 81 97 87 71 48 77 87 35 26 94 74 87 13 0 0 0 0 0 0 0 0 0 0 0 0 0 0 0 0 0 0 0 6 35 81 77 100 100 100 100 100 100
81 97 100 100 90 81 52 23 16 32 55 90 90 3 0 0 0 0 0 0 0 0 0 0 0 0 0 0 0 0 0 0 0 0 0 0 3 13 48 97 100 100 97
97 100 100 100 97 97 97 81 26 23 29 68 87 23 0 0 0 0 0 0 0 0 0 0 0 0 0 0 0 0 0 0 0 0 0 0 0 0 0 0 26 74 97
97 100 100 100 100 97 97 90 45 6 55 74 84 68 23 0 0 0 0 0 0 0 0 0 0 0 0 0 0 0 0 0 0 0 0 0 0 0 0 0 0 0 6
81 90 100 100 100 100 97 90 77 45 42 84 97 90 42 3 0 0 0 0 0 0 3 0 0 3 3 3 0 0 0 0 0 0 0 0 0 0 0 0 0 0 0
77 90 97 100 100 100 97 94 94 74 81 94 97 94 97 48 3 3 3 0 0 3 3 0 55 13 10 0 0 0 0 0 0 0 0 0 0 0 0 0 0 0 0
81 90 97 100 94 84 65 87 97 90 90 100 100 100 97 71 23 0 0 3 10 45 32 13 29 84 19 0 0 3 0 0 0 0 0 0 0 0 0 0 0 0 0
77 84 81 97 90 65 55 81 77 90 71 68 84 100 97 77 45 16 3 6 13 19 65 55 42 45 16 0 0 0 0 0 0 0 0 0 0 0 0 0 0 0 0
77 94 94 97 84 74 77 87 84 100 97 74 74 94 90 84 48 3 0 0 3 26 52 55 29 55 61 10 0 0 0 0 0 0 0 0 0 0 0 0 0 0 0
35 74 81 87 94 94 90 97 97 97 97 94 65 68 84 87 58 3 0 0 0 10 10 23 68 81 48 19 0 0 0 0 0 0 0 0 0 0 0 0 0 0 0
29 45 61 87 94 97 94 87 90 97 97 77 55 45 45 48 61 32 13 6 13 10 6 19 29 58 58 39 0 3 3 0 0 0 0 0 0 0 0 0 0 0 0

GEFSSE_con_cape1000_012.txt.gz
Probability
94 94 100 100 100 94 84 81 90 94 97 100 100 100 100 100 97 90 84 84 90 97 100 100 100 100 100 100 100 100 100 100 100 100 100 100 97 97 97 94 100 100 100
94 100 100 100 100 97 90 94 94 97 100 100 100 100 100 100 94 84 52 68 81 100 100 100 100 100 100 100 100 100 100 100 100 100 100 100 100 97 94 97 100 100 100
97 97 100 100 100 97 94 90 97 100 100 100 100 100 100 97 81 61 58 65 77 94 100 97 100 100 100 100 100 100 100 100 100 100 100 100 100 97 97 94 97 97 100
90 77 84 100 100 100 100 97 97 94 100 100 100 100 100 97 87 87 87 81 68 94 97 84 100 100 100 100 100 100 100 100 100 100 100 100 100 100 94 81 84 90 94
74 87 100 100 100 100 100 100 97 94 100 100 100 97 100 97 97 90 90 32 39 74 97 94 94 100 100 100 100 100 100 100 100 100 100 100 100 100 94 84 81 81 90
87 100 100 100 100 100 100 100 100 100 100 100 97 94 97 100 100 100 87 19 3 52 94 97 97 97 97 100 100 97 97 100 100 100 100 100 100 100 100 100 94 87 97
84 100 90 100 100 100 100 100 100 100 100 100 94 97 100 100 97 100 84 19 0 26 77 81 87 97 100 100 100 90 94 97 87 94 100 100 100 100 100 100 94 97 97
94 94 77 100 100 100 100 100 100 100 100 100 100 100 100 100 100 97 55 6 3 26 77 94 100 97 90 97 87 68 58 84 29 74 97 97 100 100 100 100 100 100 97
84 87 45 81 100 100 100 100 100 100 100 100 100 100 100 100 100 84 26 0 6 58 81 90 97 87 74 48 42 29 32 94 61 45 77 74 97 97 100 100 100 100 100
61 81 55 10 13 13 97 100 100 100 100 100 100 100 100 100 100 58 10 6 16 48 65 55 39 16 10 13 10 0 6 42 52 74 77 68 84 87 94 100 100 100 100
45 61 45 35 10 3 10 97 97 100 100 100 100 100 100 77 29 16 0 26 52 52 65 35 23 13 3 3 0 6 45 39 71 77 81 90 81 65 74 97 100 100 100
26 65 35 42 42 3 6 42 55 55 90 58 65 100 77 6 0 0 29 71 71 71 52 48 39 26 10 0 3 68 58 10 58 29 81 100 81 58 68 81 94 100 100
3 45 52 19 19 19 45 55 71 74 39 23 10 3 16 0 0 0 6 35 19 10 3 10 23 0 0 0 0 6 3 42 52 55 84 97 97 100 100 100 100 100 100
3 3 29 10 10 16 26 39 58 32 39 48 19 0 3 0 0 0 0 0 3 0 0 0 3 0 0 0 0 3 19 35 58 81 100 100 100 100 100 100 100 100 100
10 6 6 13 3 0 45 55 39 10 3 16 52 0 0 0 0 0 0 3 0 0 0 0 0 0 0 0 0 0 6 39 45 61 100 100 100 100 100 100 100 100 100
10 10 10 6 13 13 55 48 16 6 45 6 10 0 0 0 0 0 0 0 0 0 0 0 0 0 0 0 0 0 0 10 29 42 61 100 100 100 100 100 100 100 100
6 16 29 26 23 19 42 19 6 23 19 23 23 0 0 0 0 0 0 0 0 0 0 0 0 0 0 0 0 0 0 0 0 10 26 35 48 97 100 100 100 100 100
6 13 65 71 71 61 68 68 16 26 26 48 29 3 0 0 0 0 0 0 0 0 0 0 0 0 0 0 0 0 0 0 0 0 3 6 3 6 45 65 74 84 87
6 42 84 94 100 100 97 94 68 26 77 71 55 32 3 0 0 0 0 0 0 0 0 0 0 0 0 0 0 0 0 0 0 0 0 0 0 0 0 0 0 13 42
16 29 87 100 100 100 100 97 97 71 71 81 84 81 32 3 0 0 0 0 0 0 0 0 3 3 0 0 0 0 0 0 0 0 0 0 0 0 0 0 0 0 0
29 42 90 100 100 100 100 100 97 90 90 87 90 77 71 65 23 0 0 0 0 3 3 3 19 6 0 0 0 0 0 0 0 0 0 0 0 0 0 0 0 0 0
52 58 87 100 100 100 100 100 100 100 94 84 81 81 84 81 48 16 0 0 6 23 3 3 19 0 0 0 0 0 0 0 0 0 0 0 0 0 0 0 0 0 0
68 71 81 100 100 100 100 100 100 100 97 84 87 81 94 90 71 55 13 0 0 13 13 16 10 3 0 0 0 0 0 0 0 0 0 0 0 0 0 0 0 0 0
74 77 84 100 100 100 100 100 100 100 84 81 65 84 97 100 97 87 61 26 3 3 13 3 10 10 0 0 0 0 0 0 0 0 0 0 0 0 0 0 0 0 0
94 94 94 97 97 97 100 100 100 100 100 90 84 84 100 94 97 97 81 55 16 0 0 0 0 6 6 0 0 0 0 0 0 0 0 0 0 0 0 0 0 0 0
97 97 97 97 97 100 100 97 94 97 97 90 84 74 90 97 100 97 90 77 39 3 0 0 3 13 3 0 0 0 0 0 0 0 0 0 0 0 0 0 0 0 0

GEFSSE_con_cape1000_018.txt.gz
Probability
3 55 100 100 100 100 100 100 100 100 100 100 100 100 100 97 90 97 100 100 100 100 100 100 100 100 100 100 100 100 100 100 100 100 90 84 84 94 100 100 97 100 100
6 81 100 100 100 100 100 100 100 100 100 100 100 100 100 94 90 87 94 100 97 100 100 100 100 100 100 100 100 100 100 100 100 94 87 84 84 87 94 97 97 100 100
16 97 100 100 100 100 100 100 100 100 100 100 100 100 90 81 68 87 87 94 97 97 100 100 100 100 100 100 100 100 100 100 100 97 97 87 90 97 94 100 100 100 100
32 97 100 100 100 100 100 100 100 100 100 100 100 97 84 87 84 84 94 90 87 94 100 100 100 100 100 100 100 100 100 100 100 100 100 94 94 97 90 97 97 97 100
35 90 100 100 100 100 100 100 100 100 100 100 100 97 90 97 97 90 84 87 87 87 97 100 100 100 100 100 97 97 100 100 100 100 100 100 94 97 87 94 97 97 100
6 61 100 100 100 100 100 100 100 100 100 100 100 100 100 97 97 65 42 52 84 90 97 97 100 97 87 71 87 94 94 100 100 100 100 97 100 97 90 94 94 97 100
16 48 100 100 100 100 100 100 100 100 100 100 97 100 100 97 90 45 13 23 58 58 71 87 94 81 55 45 58 74 94 100 71 84 97 100 100 100 100 97 97 97 100
19 55 100 100 100 100 100 100 100 100 100 100 97 100 100 100 100 32 10 10 26 32 58 81 87 35 19 13 16 42 84 94 81 84 94 100 100 100 100 97 97 97 100
26 35 94 100 100 100 100 100 100 100 100 100 97 100 100 100 94 32 10 6 23 45 55 68 48 13 6 3 0 13 74 94 19 52 84 97 100 100 100 97 94 100 100
19 26 74 77 81 94 97 100 100 100 100 100 100 100 100 100 84 26 10 13 16 10 16 26 19 6 3 3 0 26 77 74 3 29 45 94 97 100 100 100 100 100 100
10 3 13 13 23 32 29 97 100 100 100 100 100 100 100 39 19 13 0 10 13 3 3 3 6 0 0 0 3 55 23 0 0 3 26 84 87 90 94 100 100 100 100
6 0 0 0 3 3 10 42 39 94 94 94 87 97 6 0 0 3 0 10 3 0 0 0 0 0 0 0 0 3 0 0 0 6 61 94 61 68 74 94 100 100 100
6 3 0 0 0 0 0 0 0 0 23 10 10 3 0 0 0 0 0 6 0 0 0 0 0 0 0 0 0 0 0 0 0 3 74 100 87 81 81 94 100 100 100
6 6 6 0 0 0 0 0 0 0 3 0 0 3 0 0 0 0 0 0 0 0 0 0 0 0 0 0 0 0 0 0 0 3 84 100 97 97 97 97 100 100 100
10 6 6 0 0 0 0 0 0 0 3 0 0 0 0 0 0 0 0 0 0 0 0 0 0 0 0 0 0 0 0 0 0 0 39 100 100 100 100 97 100 100 100
0 0 3 3 0 0 0 0 0 0 0 0 0 0 0 0 0 0 0 0 0 0 0 0 0 0 0 0 0 0 0 0 0 0 13 84 100 100 100 100 100 100 100
0 3 0 3 0 0 0 0 0 0 0 0 0 0 0 0 0 0 0 0 0 0 0 0 0 0 0 0 0 0 0 0 0 0 3 13 61 100 100 100 100 100 97
3 3 3 10 0 0 0 0 0 0 0 0 0 0 0 0 0 0 0 0 0 0 0 0 0 0 0 0 0 0 0 0 0 0 0 0 3 29 90 100 100 100 84
6 0 3 3 0 3 0 0 0 0 0 0 0 0 0 0 0 0 0 0 0 0 0 0 0 0 0 0 0 0 0 0 0 0 0 0 0 3 13 61 84 87 84
3 6 6 0 0 0 0 0 0 0 0 0 0 0 0 0 0 0 0 0 0 0 0 0 0 0 0 0 0 0 0 0 0 0 0 0 0 0 0 0 0 10 55
3 3 0 3 3 3 6 0 0 0 0 0 0 0 0 0 0 0 0 0 0 0 0 0 0 0 0 0 0 0 0 0 0 0 0 0 0 0 0 0 0 0 0
16 23 23 26 23 13 10 3 0 0 0 0 0 0 0 0 0 0 0 0 0 0 0 0 0 0 0 0 0 0 0 0 0 0 0 0 0 0 0 0 0 0 0
29 65 87 87 65 29 13 0 0 0 0 0 0 0 0 0 0 0 0 0 0 0 0 0 0 0 0 0 0 0 0 0 0 0 0 0 0 0 0 0 0 0 0
65 87 90 87 81 58 26 13 6 3 0 0 0 0 0 0 0 0 0 0 0 0 0 0 0 0 0 0 0 0 0 0 0 0 0 0 0 0 0 0 0 0 0
87 87 87 65 65 45 35 32 26 6 3 0 0 0 0 0 0 0 0 0 0 0 0 0 0 0 0 0 0 0 0 0 0 0 0 0 0 0 0 0 0 0 0
74 74 71 58 55 48 39 19 26 23 10 6 0 0 0 0 0 0 0 0 0 0 0 0 0 0 0 0 0 0 0 0 0 0 0 0 0 0 0 0 0 0 0

GEFSSE_con_cape1000_024.txt.gz
Probability
0 6 100 100 100 100 100 100 100 100 100 100 100 100 100 100 97 100 100 100 100 100 100 100 100 100 100 100 100 100 100 100 100 100 100 100 100 100 100 100 100 100 100
0 29 100 100 100 100 100 100 100 100 100 100 100 97 100 100 100 97 100 100 100 100 100 100 100 100 100 100 100 100 100 100 100 100 100 100 100 100 100 100 100 100 100
6 74 100 100 100 100 100 100 100 100 100 100 100 94 97 94 94 90 100 100 100 100 100 100 100 100 100 100 100 100 100 100 100 100 100 84 97 97 97 94 97 100 100
13 94 100 100 100 100 100 100 100 100 100 100 100 90 84 87 81 87 90 97 94 94 97 100 100 100 100 100 100 100 100 100 100 100 90 81 87 100 97 94 94 97 100
23 87 100 100 100 100 100 100 100 100 100 100 97 87 84 77 65 65 74 77 87 84 90 94 97 100 100 100 100 97 97 97 97 100 84 84 81 94 97 97 94 97 97
52 65 100 100 100 100 100 100 100 100 100 100 94 97 94 81 55 32 45 61 52 52 52 77 77 84 90 97 97 97 97 97 90 81 84 90 90 97 97 94 90 100 97
48 61 100 100 100 100 100 100 100 100 100 100 100 100 100 68 32 16 19 35 35 32 23 55 32 39 61 68 94 100 97 97 74 74 71 84 94 100 97 97 97 100 100
32 68 100 100 100 100 100 100 100 100 100 100 100 100 100 77 42 19 6 13 19 16 13 10 16 0 6 26 68 94 97 97 81 84 84 87 100 100 97 97 100 100 100
10 68 90 100 100 100 100 100 100 100 100 100 100 100 100 90 39 19 10 0 3 3 0 3 3 0 0 3 29 68 87 94 29 74 90 97 100 100 97 100 100 100 100
3 39 61 81 84 84 94 100 100 100 100 100 100 100 100 97 42 19 6 0 3 0 0 3 0 0 3 3 29 77 90 74 23 42 71 97 100 100 100 100 100 100 100
0 10 19 23 23 32 45 100 100 100 100 100 97 100 97 26 6 10 0 0 0 0 0 0 3 3 0 3 52 84 61 0 3 13 23 94 90 100 100 100 100 100 100
0 3 6 0 0 0 29 65 74 87 90 81 71 84 3 3 0 3 3 0 0 0 0 0 0 0 0 0 13 23 0 0 0 3 29 90 65 77 87 97 100 100 100
0 3 3 0 0 0 0 0 3 6 13 6 6 3 0 0 0 3 0 0 0 0 0 0 0 0 0 0 0 0 0 0 0 0 23 90 65 58 74 94 100 100 100
3 3 3 0 0 0 0 0 0 0 0 0 0 3 0 0 0 0 0 0 0 0 0 0 0 0 0 0 0 0 0 0 0 0 16 100 94 84 90 100 97 100 100
3 3 3 3 0 0 0 0 0 0 0 0 0 0 0 0 0 0 0 0 0 0 0 0 0 0 0 0 0 0 0 0 0 0 6 100 97 97 100 97 97 97 100
0 3 3 3 0 0 0 0 0 0 0 0 0 0 0 0 0 0 0 0 0 0 0 0 0 0 0 0 0 0 0 0 0 0 0 42 100 100 100 100 100 100 100
3 3 3 0 0 0 0 0 0 0 0 0 0 0 0 0 0 0 0 0 0 0 0 0 0 0 0 0 0 0 0 0 0 0 0 0 23 100 100 100 100 97 94
6 0 3 6 0 0 0 0 0 0 0 0 0 0 3 0 0 0 0 0 0 0 0 0 0 0 0 0 0 0 0 0 0 0 0 0 0 13 84 100 100 90 74
6 6 3 6 3 0 0 0 0 0 0 0 0 0 0 0 0 0 0 0 0 0 0 0 0 0 0 0 0 0 0 0 0 0 0 0 0 0 0 48 84 84 68
6 13 13 6 3 0 0 0 0 0 0 0 0 0 0 0 0 0 0 0 0 0 0 0 0 0 0 0 0 0 0 0 0 0 0 0 0 0 0 0 0 16 61
0 13 16 13 3 0 0 0 0 0 0 0 0 0 0 0 0 0 0 0 0 0 0 0 0 0 0 0 0 0 0 0 0 0 0 0 0 0 0 0 0 0 0
0 13 23 13 6 3 0 0 0 0 0 0 0 0 0 0 0 0 0 0 0 0 0 0 0 0 0 0 0 0 0 0 0 0 0 0 0 0 0 0 0 0 0
0 3 16 13 6 3 0 0 0 0 0 0 0 0 0 0 0 0 0 0 0 0 0 0 0 0 0 0 0 0 0 0 0 0 0 0 0 0 0 0 0 0 0
0 0 6 6 3 0 0 0 0 0 0 0 0 0 0 0 0 0 0 0 0 0 0 0 0 0 0 0 0 0 0 0 0 0 0 0 0 0 0 0 0 0 0
13 0 6 0 0 0 0 0 0 0 0 0 0 0 0 0 0 0 0 0 0 0 0 0 0 0 0 0 0 0 0 0 0 0 0 0 0 0 0 0 0 0 0
19 6 6 0 0 0 0 0 0 0 0 0 0 0 0 0 0 0 0 0 0 0 0 0 0 0 0 0 0 0 0 0 0 0 0 0 0 0 0 0 0 0 0

GEFSSE_con_cape1000_030.txt.gz
Probability
0 55 100 100 100 100 100 100 100 100 100 100 100 97 97 100 100 100 100 100 100 100 100 100 100 100 97 100 97 100 100 97 97 97 97 100 100 100 100 100 100 100 100
0 81 100 100 100 100 100 100 100 100 100 100 100 97 94 90 94 97 97 100 100 100 100 100 100 100 100 100 100 100 97 97 94 97 97 100 100 100 100 100 100 100 100
42 100 100 100 100 100 100 100 100 100 100 100 100 97 90 81 77 87 94 97 100 100 100 100 100 100 100 100 100 100 100 97 97 97 97 97 97 94 94 97 100 100 100
32 100 100 100 100 100 100 100 100 100 100 100 100 97 74 61 68 77 90 94 94 97 97 97 97 97 97 100 100 100 100 100 100 94 94 90 94 90 90 94 100 100 100
26 71 100 100 100 100 100 100 100 100 100 100 97 87 65 61 55 58 71 74 77 97 97 97 97 97 100 97 100 100 100 100 97 94 97 97 100 97 90 90 94 97 97
23 48 100 100 100 100 100 100 100 100 100 100 94 81 68 58 48 52 55 58 58 74 84 87 90 94 94 94 94 97 97 97 97 97 97 97 97 97 94 87 90 94 97
6 29 97 100 100 100 100 100 100 100 100 97 94 90 74 45 26 32 29 29 29 29 39 65 68 61 71 94 94 97 97 90 94 94 97 97 97 90 90 90 87 90 94
0 10 77 100 100 100 100 100 100 100 100 97 97 94 77 42 19 23 19 19 19 13 10 13 13 10 19 71 90 94 90 90 74 71 94 97 97 90 90 97 94 97 84
3 6 52 90 97 100 100 100 100 100 100 100 100 100 94 45 26 3 6 13 10 6 3 3 0 3 10 42 81 90 94 81 81 71 52 97 94 97 97 94 94 97 94
3 3 13 48 71 94 97 100 100 100 100 100 100 100 97 45 26 3 3 0 6 0 0 3 0 3 16 45 71 81 87 68 32 29 65 94 97 90 94 94 94 97 100
3 3 3 19 35 61 81 90 100 100 100 100 100 100 94 45 19 10 0 0 0 0 0 3 3 3 13 48 77 71 61 13 10 16 71 94 87 94 94 97 100 100 100
6 3 6 16 16 29 61 97 97 100 100 100 97 100 81 16 6 3 0 0 0 0 0 0 0 0 0 0 26 48 16 19 10 6 65 90 61 71 81 90 100 100 100
10 6 3 10 10 19 94 100 100 100 100 97 74 74 68 10 3 3 3 0 0 0 0 0 0 0 0 0 0 3 13 10 3 3 65 84 74 58 58 84 90 97 100
10 10 6 6 16 23 74 97 97 100 100 94 74 45 45 23 3 3 3 0 0 0 0 0 0 0 0 0 0 0 6 10 6 0 87 74 65 87 68 77 94 94 100
16 32 23 16 16 32 65 97 97 97 97 74 84 32 23 10 3 3 3 0 0 0 0 0 0 0 0 0 0 0 0 0 0 3 55 81 74 71 87 87 87 94 97
16 35 55 39 23 32 71 97 90 94 100 65 61 29 6 3 3 3 0 0 0 0 0 0 0 0 0 0 0 0 0 0 0 0 13 71 84 87 87 100 97 97 97
16 19 55 65 48 39 26 42 68 84 87 74 61 23 3 3 3 3 0 0 0 0 0 0 0 0 0 0 0 0 0 0 3 3 13 39 68 77 81 87 94 90 94
23 35 65 87 65 65 65 77 87 84 71 71 61 26 3 0 0 6 3 0 0 0 0 0 0 0 0 0 0 0 0 3 0 3 3 10 29 45 84 84 77 84 74
45 48 71 97 97 100 100 97 90 71 84 71 48 35 16 0 3 10 26 6 0 0 0 0 0 0 0 0 0 0 0 0 0 0 0 0 10 35 55 71 71 71 52
45 55 77 100 100 100 100 100 100 87 87 84 71 65 29 29 19 42 68 19 10 10 10 0 0 0 0 3 0 0 0 3 0 0 0 0 0 0 3 13 13 32 39
19 48 71 97 100 100 100 100 100 100 100 97 87 61 65 71 71 77 81 58 45 23 26 6 6 3 6 0 0 3 0 0 0 0 0 0 0 0 0 3 3 6 10
10 23 65 84 100 100 97 97 97 100 100 100 97 94 77 87 94 39 74 87 84 71 32 23 19 16 6 3 13 13 6 0 3 0 3 6 0 0 0 0 0 0 0
6 19 29 74 97 97 97 90 90 94 97 97 97 100 97 90 94 97 84 81 81 71 71 61 39 35 45 6 3 10 3 6 13 0 0 0 0 0 0 0 0 0 0
48 29 26 52 74 90 77 74 74 74 74 68 77 81 87 84 90 97 90 87 77 81 84 65 42 61 58 39 6 0 0 3 6 0 0 0 0 3 0 0 0 0 0
58 45 32 55 77 74 65 55 32 23 29 45 55 58 71 87 84 81 87 90 84 87 68 55 65 65 55 61 35 0 0 0 0 0 0 0 0 0 3 0 0 0 0
35 61 61 71 61 52 42 16 13 3 6 10 39 52 61 71 74 68 77 74 58 55 48 61 68 65 68 61 52 19 13 10 0 3 0 3 0 0 0 3 0 0 0

GEFSSE_con_cape1000_036.txt.gz
Probability
94 87 100 100 100 100 100 100 100 100 100 100 100 97 97 100 100 100 100 100 100 100 100 100 100 97 94 94 97 97 100 97 94 94 100 100 100 100 100 100 100 100 100
81 74 100 100 100 100 100 100 100 100 100 100 100 100 100 100 100 100 100 100 100 100 100 100 100 100 97 97 97 97 100 100 100 94 94 94 97 100 97 100 100 100 100
77 74 100 100 100 100 100 100 100 100 100 100 97 90 87 90 94 94 94 97 97 100 100 100 100 100 100 100 97 97 100 94 94 94 94 97 100 97 100 100 100 100 100
68 58 90 100 100 100 100 100 100 100 100 100 90 84 84 77 81 81 87 90 94 97 97 97 97 97 97 97 100 100 97 97 94 90 90 90 94 97 97 100 97 97 100
35 61 100 100 100 100 100 100 100 100 100 100 84 77 68 68 71 81 87 94 97 97 97 97 97 97 97 100 100 100 97 94 90 90 87 84 87 97 97 90 94 100 100
87 100 100 100 100 100 100 100 100 100 100 100 81 65 55 52 52 65 74 77 90 97 97 97 97 94 94 100 100 90 87 90 94 94 87 90 90 97 94 94 94 97 97
87 97 97 100 100 100 100 100 100 100 100 100 81 68 61 39 35 45 58 58 61 65 71 77 77 77 94 94 90 90 90 94 97 90 94 94 97 94 94 87 90 94 90
81 90 81 100 100 100 100 100 100 100 100 97 81 68 58 39 32 29 48 42 35 26 19 29 35 42 68 87 90 81 87 94 87 87 94 94 97 97 90 90 90 90 94
71 81 65 94 97 100 100 100 100 100 97 97 87 84 65 39 39 32 32 23 16 3 3 0 3 16 48 71 81 77 74 94 77 65 97 94 97 94 94 94 90 90 90
29 77 58 48 71 87 97 100 100 97 100 97 97 94 65 32 19 23 19 16 6 0 0 0 3 6 29 55 68 61 74 84 32 68 87 97 97 94 94 90 97 97 97
0 32 65 42 55 58 71 100 100 97 100 97 97 97 74 19 6 3 13 10 6 0 0 0 0 6 23 45 68 84 71 16 6 65 65 97 97 94 90 97 100 100 97
0 10 32 45 68 65 71 81 77 90 100 87 84 81 61 29 19 3 6 6 0 0 0 0 0 3 10 10 29 74 10 13 3 39 55 94 77 71 77 87 97 100 100
0 0 10 26 52 68 94 87 87 87 100 84 87 77 77 42 10 0 0 0 0 0 0 0 0 0 0 0 0 0 0 0 0 19 42 97 71 58 55 68 81 87 100
3 0 0 6 10 52 71 94 100 84 94 81 90 65 71 42 13 0 0 0 0 0 0 0 0 0 0 0 0 0 0 0 16 26 26 90 68 58 65 74 74 77 84
6 3 0 0 6 23 77 100 77 87 84 77 97 84 42 32 10 0 0 0 0 0 0 0 0 0 0 0 0 0 0 0 3 10 0 77 68 65 77 74 65 84 84
6 6 6 3 0 13 71 100 77 94 97 84 84 77 29 19 3 0 0 0 0 0 0 0 0 0 0 0 0 0 0 0 0 29 13 10 65 65 77 81 81 81 84
3 6 3 3 0 3 42 61 74 97 81 84 81 39 10 10 3 0 0 0 0 0 0 0 0 0 0 0 0 0 0 0 0 3 26 13 6 65 68 71 71 84 84
3 3 13 10 6 10 19 68 55 71 77 77 68 48 6 3 0 0 0 3 0 0 0 0 0 0 0 0 0 0 0 0 0 0 3 26 23 16 48 81 74 71 71
10 6 6 19 19 19 35 68 74 45 84 71 71 39 16 0 0 6 3 0 0 0 0 0 0 0 0 0 0 0 0 0 0 0 0 0 29 45 13 23 74 58 58
10 19 19 61 61 61 77 52 97 94 84 71 77 74 19 3 10 19 6 0 0 3 0 0 0 0 0 0 0 0 0 0 0 0 0 0 0 13 10 6 13 29 61
16 23 35 68 84 94 97 97 100 100 94 84 74 61 48 29 32 23 19 3 16 3 0 0 0 0 0 0 0 0 0 0 0 0 0 0 0 0 6 10 10 3 3
35 48 52 48 84 94 100 94 100 97 90 87 81 68 42 16 23 19 26 23 19 13 13 3 0 0 0 0 0 0 0 0 0 0 0 0 0 0 0 0 10 3 0
39 55 65 61 68 90 100 94 87 84 84 77 74 61 42 23 35 16 23 23 19 16 10 3 10 0 0 0 0 0 0 0 0 0 0 0 0 0 0 0 0 0 0
16 35 52 68 71 77 94 87 77 77 65 58 39 35 19 13 16 13 10 13 16 10 10 3 0 3 0 0 0 0 0 0 0 0 0 0 0 0 0 0 0 0 0
16 26 42 55 71 65 84 87 77 65 39 26 23 23 16 10 10 13 16 23 13 6 0 3 0 0 0 0 0 0 0 0 0 0 0 0 0 0 0 0 0 0 0
19 16 19 42 45 52 55 58 58 39 23 19 16 10 6 0 0 6 16 13 6 6 3 0 3 0 3 3 0 0 0 0 0 0 0 0 0 0 0 0 0 0 0

GEFSSE_con_cape1000_042.txt.gz
Probability
10 77 100 100 100 100 100 100 100 100 100 100 100 100 100 100 100 100 100 100 100 100 100 100 100 100 100 97 97 97 100 100 100 100 100 100 100 100 100 100 100 100 100
6 90 100 100 100 100 100 100 100 100 100 100 100 100 100 100 100 100 100 100 100 100 100 100 100 100 100 100 100 100 100 100 100 100 97 97 97 100 100 100 100 100 100
52 100 100 100 100 100 100 100 100 100 100 100 100 100 100 100 100 100 100 100 100 100 100 100 100 100 100 100 100 100 100 97 100 97 94 77 87 100 100 100 100 100 100
77 97 100 100 100 100 100 100 100 100 97 97 97 100 100 100 100 100 100 97 97 97 97 97 100 100 100 100 100 100 100 100 100 90 68 71 77 97 97 97 100 100 100
71 97 100 100 100 100 100 100 100 97 97 97 97 94 97 97 97 97 97 97 97 97 97 97 100 100 100 100 100 100 100 100 100 84 68 52 71 90 97 97 97 100 100
71 94 100 100 100 100 100 100 100 100 100 94 90 94 100 97 97 97 97 97 97 97 97 97 100 100 100 100 100 100 97 97 87 81 71 68 84 90 87 100 94 100 100
68 94 100 100 100 100 100 100 100 100 94 90 84 87 94 97 97 100 97 94 94 90 87 87 90 94 90 90 90 94 94 97 81 74 61 74 81 90 94 97 94 94 97
65 97 100 100 100 100 100 100 100 100 97 90 81 84 81 90 90 84 81 71 58 55 58 58 74 77 81 84 87 90 97 97 87 81 74 81 84 97 94 94 94 94 90
55 90 100 100 100 100 100 100 100 100 100 94 87 77 77 81 81 77 61 48 32 29 26 26 35 45 68 71 87 84 90 90 48 71 81 90 97 97 94 94 90 94 94
42 68 100 100 100 100 100 100 100 100 100 97 94 90 84 84 84 74 48 32 6 6 6 6 13 29 39 58 68 71 90 32 55 84 84 97 97 97 97 97 94 94 97
32 35 81 84 84 90 97 100 100 100 100 100 94 94 94 26 13 35 29 23 16 6 0 3 6 13 26 39 55 77 58 0 23 42 71 97 97 94 94 97 97 97 97
32 23 32 39 68 74 84 97 97 100 100 90 65 71 19 3 0 0 10 32 23 13 6 0 3 10 13 6 3 16 0 0 6 29 74 100 97 97 90 94 97 97 97
45 26 16 16 19 26 35 71 77 71 71 71 39 32 10 0 0 0 0 19 6 6 0 0 0 0 0 0 0 0 0 0 0 10 61 100 87 77 81 87 94 94 97
45 32 26 16 3 10 23 55 42 32 42 32 23 16 6 0 0 0 0 0 0 0 0 0 0 0 0 0 0 0 0 0 0 0 29 100 90 68 68 74 77 81 84
29 39 29 19 16 16 16 32 29 19 16 13 10 6 0 0 0 0 0 0 0 0 0 0 0 0 0 0 0 0 0 0 0 0 13 97 97 84 71 77 77 81 87
6 13 32 35 26 13 26 26 23 16 10 3 3 0 3 0 0 0 0 0 0 0 0 0 0 0 0 0 0 0 0 0 0 0 3 39 77 97 94 74 68 74 87
0 0 10 19 23 19 23 23 19 16 13 6 0 0 0 3 0 0 0 0 0 0 0 0 0 0 0 0 0 0 0 0 0 0 0 0 10 58 97 90 84 68 74
0 0 0 16 10 23 26 16 19 16 6 3 3 0 0 0 0 0 0 0 0 0 0 0 0 0 0 0 0 0 0 0 0 0 0 0 0 6 48 97 94 90 81
0 0 6 6 3 6 16 19 16 13 13 6 3 6 0 0 0 0 0 0 0 0 0 0 0 0 0 0 0 0 0 0 0 0 0 0 0 0 0 35 87 84 87
3 0 3 0 0 0 3 13 13 10 13 6 6 6 0 0 0 0 0 0 0 0 0 0 0 0 0 0 0 0 0 0 0 0 0 0 0 0 0 0 3 23 65
0 0 0 0 0 0 3 6 3 3 10 6 6 6 0 0 0 0 0 0 0 0 0 0 0 0 0 0 0 0 0 0 0 0 0 0 0 0 0 0 0 0 3
0 0 0 3 0 0 0 3 3 3 6 10 3 3 0 0 0 0 0 0 0 0 0 0 0 0 0 0 0 0 0 0 0 0 0 0 0 0 0 0 0 0 0
0 0 0 0 0 0 3 3 6 0 0 0 0 0 0 0 0 0 0 0 0 0 0 0 0 0 0 0 0 0 0 0 0 0 0 0 0 0 0 0 0 0 0
0 0 0 0 0 0 0 0 13 10 3 10 6 3 0 0 0 0 0 0 0 0 0 0 0 0 0 0 0 0 0 0 0 0 0 0 0 0 0 0 0 0 0
0 0 0 0 0 0 0 0 3 13 16 0 0 3 0 0 0 0 0 0 0 0 0 0 0 0 0 0 0 0 0 0 0 0 0 0 0 0 0 0 0 0 0
0 0 0 0 0 0 0 0 3 10 13 0 0 0 0 0 0 0 0 0 0 0 0 0 0 0 0 0 0 0 0 0 0 0 0 0 0 0 0 0 0 0 0

GEFSSE_con_cape1000_048.txt.gz
Probability
0 13 100 100 100 100 100 100 100 100 100 100 100 100 100 97 97 100 100 100 100 100 100 100 100 100 100 100 100 100 100 100 100 100 100 100 100 100 100 100 100 100 100
0 52 100 100 100 100 100 100 100 100 100 100 100 100 100 100 100 100 100 100 100 100 100 100 100 100 100 100 100 100 100 100 100 100 100 100 100 100 100 100 100 100 100
26 87 100 100 100 100 100 100 100 97 100 100 100 100 100 100 100 100 100 100 100 100 100 100 100 100 100 100 100 100 100 100 100 97 94 84 100 100 100 100 100 100 100
45 100 100 100 100 100 100 100 97 97 97 97 100 100 100 100 100 97 97 97 97 97 97 97 97 97 100 100 100 100 97 97 100 87 65 71 94 100 100 100 100 100 100
61 97 100 100 100 100 100 100 97 97 94 94 94 97 97 97 97 97 97 97 97 97 97 97 97 100 100 100 100 100 97 97 94 61 48 65 74 100 100 100 100 100 100
71 94 100 100 100 100 100 100 97 97 94 94 90 90 94 90 94 94 94 94 90 90 94 97 97 100 100 100 100 100 100 100 84 52 52 71 84 94 97 100 100 100 100
74 94 100 100 100 100 100 100 97 97 94 94 90 90 84 87 90 90 94 94 94 90 87 90 97 90 90 97 97 97 100 100 61 48 45 52 77 97 97 97 94 97 100
74 100 100 100 100 100 100 100 97 97 94 81 87 90 87 90 90 87 87 81 74 74 65 71 77 77 71 87 97 97 100 100 81 65 52 52 87 97 97 90 90 94 94
77 97 100 100 100 100 100 100 100 97 97 90 84 84 87 90 81 74 68 52 48 42 48 48 48 65 71 71 84 87 84 84 55 48 71 65 97 94 94 94 94 94 94
55 84 97 100 100 100 100 100 100 100 97 97 90 87 94 84 77 74 61 39 29 23 19 19 16 16 26 58 65 71 74 58 29 45 55 84 97 97 97 94 94 94 94
45 55 87 90 97 100 100 100 100 100 100 97 97 90 90 48 29 42 48 35 16 6 0 6 6 16 16 19 32 48 16 0 10 13 29 94 97 94 97 94 97 97 97
42 39 55 71 71 90 100 100 100 100 97 84 68 68 55 3 3 6 16 26 19 10 3 0 3 3 0 0 0 0 0 0 3 3 10 90 100 94 94 94 97 97 97
26 39 58 58 68 71 77 65 87 84 71 61 45 26 10 3 3 0 0 3 6 13 3 0 0 0 0 0 0 0 0 0 0 0 6 87 94 90 94 90 94 94 97
16 29 32 58 55 58 52 42 61 65 58 42 26 13 10 3 0 0 0 0 0 0 0 0 0 0 0 0 0 0 0 0 0 0 0 81 84 65 68 77 81 87 90
23 19 16 42 35 35 29 23 58 61 61 45 32 13 10 3 3 0 0 0 0 0 0 0 0 0 0 0 0 0 0 0 0 0 0 48 90 68 55 65 71 77 81
10 13 19 16 13 10 16 10 23 45 55 32 26 19 16 10 3 0 0 0 0 0 0 0 0 0 0 0 0 0 0 0 0 0 0 3 77 84 71 55 65 77 68
0 0 13 16 13 0 0 10 13 26 26 29 26 6 6 3 0 0 0 0 0 0 0 0 0 0 0 0 0 0 0 0 0 0 0 0 0 29 77 61 61 48 48
0 0 0 10 16 6 6 3 19 19 26 23 16 6 3 0 0 0 0 0 0 0 0 0 0 0 0 0 0 0 0 0 0 0 0 0 0 0 0 61 77 68 55
0 0 0 0 3 3 0 13 13 13 6 6 6 3 3 0 0 0 0 0 0 0 0 0 0 0 0 0 0 0 0 0 0 0 0 0 0 0 0 0 52 74 77
0 0 0 0 0 0 3 3 10 13 13 10 6 3 3 3 0 0 0 0 0 0 0 0 0 0 0 0 0 0 0 0 0 0 0 0 0 0 0 0 0 0 35
0 0 0 0 0 0 0 3 3 0 3 13 6 3 3 0 0 0 0 0 0 0 0 0 0 0 0 0 0 0 0 0 0 0 0 0 0 0 0 0 0 0 0
0 0 0 0 0 0 0 0 0 3 3 0 10 3 3 3 0 0 0 0 0 0 0 0 0 0 0 0 0 0 0 0 0 0 0 0 0 0 0 0 0 0 0
0 0 0 0 0 0 0 0 0 0 3 0 0 3 3 0 3 3 0 0 0 0 0 0 0 0 0 0 0 0 0 0 0 0 0 0 0 0 0 0 0 0 0
0 0 0 0 0 0 0 0 0 0 0 3 3 3 3 6 3 3 3 0 0 0 0 0 0 0 0 0 0 0 0 0 0 0 0 0 0 0 0 0 0 0 0
0 0 0 0 0 0 0 0 0 0 0 0 0 3 3 6 3 3 3 0 0 0 0 0 0 0 0 0 0 0 0 0 0 0 0 0 0 0 0 0 0 0 0
0 0 0 0 0 0 0 0 0 0 0 0 3 3 3 0 0 0 0 0 0 0 0 0 0 0 0 0 0 0 0 0 0 0 0 0 0 0 0 0 0 0 0

GEFSSE_con_cape1000_054.txt.gz
Probability
0 48 100 100 100 100 100 100 100 100 100 100 100 100 97 97 97 97 100 100 100 100 100 97 97 100 100 100 100 100 100 100 100 100 100 100 100 100 100 100 100 100 100
3 84 100 100 100 100 100 100 100 100 100 100 100 97 97 97 97 100 100 100 100 100 100 100 100 100 100 100 100 100 100 100 100 100 100 100 100 100 100 100 100 100 100
26 97 100 100 100 100 100 100 100 100 100 100 97 97 97 97 97 97 100 100 100 100 100 100 100 100 100 100 100 100 100 100 100 100 100 100 100 100 100 100 100 100 97
32 94 94 100 100 100 100 100 100 100 100 100 97 97 97 97 97 97 97 94 94 97 97 97 97 100 100 100 100 100 100 100 97 94 94 94 90 97 100 100 100 97 100
42 84 100 100 100 100 100 100 97 97 97 97 97 97 97 94 94 94 97 94 90 94 97 97 97 97 100 100 100 100 100 94 90 87 90 97 100 100 94 97 94 97 100
45 77 100 100 100 100 100 97 97 97 97 94 94 94 94 97 97 87 90 90 90 90 94 94 97 97 97 100 100 94 97 87 81 84 87 87 94 94 94 94 94 94 100
26 68 97 100 100 100 100 97 97 97 97 90 90 87 87 87 84 84 87 90 90 90 90 94 87 90 94 97 94 94 90 87 84 84 84 94 90 94 87 87 94 87 90
16 48 84 100 100 100 100 97 97 97 97 94 84 84 87 81 74 84 81 84 77 74 77 77 71 68 81 81 84 84 90 84 84 71 87 90 97 90 94 90 94 94 90
13 29 71 94 100 100 100 100 97 97 90 87 87 87 87 84 77 77 84 68 48 52 58 55 52 52 58 68 71 77 84 77 84 84 52 90 94 94 87 87 90 97 94
19 26 42 74 74 90 100 100 100 97 94 87 87 84 84 77 74 74 74 55 35 35 29 29 29 32 45 45 55 71 58 68 74 77 71 97 94 90 84 87 87 97 97
32 32 29 45 65 65 71 97 100 100 100 94 87 84 84 71 42 61 35 52 23 16 16 16 6 16 10 16 35 35 32 55 48 48 65 94 94 94 90 90 87 90 94
42 42 42 42 61 68 74 77 100 97 100 100 81 77 77 39 19 3 13 35 23 13 6 6 6 13 3 3 6 6 16 13 13 23 55 90 97 94 90 90 90 90 87
55 45 35 48 58 65 90 90 97 100 97 90 71 68 74 42 19 6 19 32 35 13 10 10 6 3 0 0 3 0 6 0 3 10 45 84 90 90 84 87 90 90 90
42 45 42 42 58 65 81 94 100 100 100 90 87 65 71 68 45 10 23 6 16 19 10 6 6 0 0 0 0 0 0 0 3 3 55 65 68 65 74 77 87 84 84
19 26 35 39 48 61 77 94 87 100 100 97 90 81 65 68 55 16 13 23 6 6 6 10 3 0 0 0 0 0 0 0 0 0 23 48 61 61 55 65 74 77 77
3 3 13 35 39 48 68 77 84 87 97 97 97 87 61 68 58 48 23 19 6 6 3 3 0 0 0 0 0 0 0 0 0 0 0 29 42 45 58 55 61 71 68
3 3 3 10 23 35 42 61 74 77 81 84 90 81 71 71 55 55 42 16 16 6 0 0 0 0 0 0 0 0 0 0 0 0 0 0 3 23 48 35 55 58 48
0 0 0 3 13 16 29 45 55 61 65 74 77 84 55 58 55 71 68 45 23 6 6 3 3 3 0 0 0 0 0 0 0 0 0 0 0 0 6 39 48 42 29
0 0 0 0 3 6 10 26 45 42 58 65 55 68 65 55 71 71 84 74 29 48 19 3 3 0 0 0 0 0 0 0 0 0 0 0 0 0 0 13 32 55 39
0 0 0 0 0 0 6 10 29 35 45 52 48 55 58 58 71 77 81 65 45 45 42 16 3 10 0 3 0 0 0 0 0 0 0 0 0 0 0 0 0 3 32
0 0 0 0 0 0 3 6 13 26 35 35 35 39 39 45 48 61 74 58 65 52 35 23 19 6 10 0 0 0 0 0 0 0 0 0 0 0 0 0 0 0 6
0 0 0 0 0 0 0 6 6 13 19 35 58 52 42 35 52 42 58 52 52 52 45 29 29 26 16 0 3 10 0 0 0 0 0 0 0 0 0 0 0 0 0
0 0 0 0 0 0 0 6 10 16 16 39 55 52 45 45 48 48 45 48 48 45 39 32 23 23 16 6 6 6 0 0 3 0 0 0 0 0 0 0 0 0 0
0 0 0 0 0 0 3 3 6 13 19 29 42 48 55 42 42 48 48 48 45 52 45 39 6 13 16 16 3 0 0 6 0 6 0 0 0 0 0 0 0 0 0
0 0 0 0 0 0 3 10 10 23 23 23 32 39 39 32 32 39 48 55 48 55 39 23 13 6 13 19 10 0 3 6 0 0 3 0 0 0 3 3 0 0 0
0 0 0 0 0 0 10 10 13 16 16 23 23 39 32 39 35 26 35 42 35 32 23 23 16 13 6 3 13 6 10 6 0 3 0 6 0 0 0 0 3 3 6

GEFSSE_con_cape1000_060.txt.gz
Probability
77 94 100 100 100 100 100 100 100 100 97 94 94 94 87 87 81 87 97 97 97 100 97 97 97 97 100 100 100 100 100 100 100 100 100 100 100 100 100 100 100 100 100
84 97 100 100 100 100 100 100 100 100 97 97 94 94 87 90 90 90 90 97 100 100 100 100 100 97 100 100 100 100 100 100 100 100 100 100 100 100 100 100 100 100 97
87 100 100 100 100 100 100 100 100 100 100 97 97 97 90 90 90 87 90 94 97 100 100 100 97 97 100 100 100 100 100 100 100 100 100 100 100 100 100 100 100 100 97
94 97 100 100 100 100 100 100 100 100 100 97 97 97 94 94 90 87 90 94 90 97 97 97 97 97 100 100 100 100 100 97 97 100 100 100 97 100 100 100 100 97 97
94 97 100 100 100 100 100 100 100 100 100 97 97 97 94 94 90 84 84 90 94 94 94 97 97 97 97 100 100 97 97 94 94 97 90 100 97 97 97 97 97 94 97
97 100 100 100 100 100 100 100 97 94 97 97 97 94 87 84 77 74 77 84 90 87 90 90 90 90 97 94 94 94 94 87 90 87 90 97 94 94 94 94 97 97 94
90 100 100 100 100 100 100 97 97 97 94 90 87 90 87 84 81 77 81 81 84 84 84 84 87 84 81 90 90 87 90 90 90 81 87 97 94 94 90 94 90 94 90
84 94 100 100 100 100 100 97 97 97 94 87 87 84 87 84 84 81 84 84 81 71 77 77 68 74 77 77 74 74 87 94 84 77 90 94 94 97 84 90 97 90 90
71 87 97 100 100 100 100 100 97 97 97 84 84 90 90 87 81 84 81 77 71 61 58 58 55 55 55 52 65 71 71 81 74 87 77 87 94 90 90 90 94 94 90
35 71 87 90 97 100 100 100 100 100 100 94 90 94 94 90 90 87 94 84 68 48 29 39 35 42 45 45 52 68 81 77 52 74 81 90 100 84 87 87 94 94 90
23 32 52 55 84 94 100 100 100 100 100 100 94 97 97 84 71 84 84 87 74 45 29 23 35 26 39 48 71 74 71 16 45 65 68 100 97 94 87 90 87 90 90
32 23 10 35 42 61 87 100 100 100 100 94 87 81 77 65 61 68 84 87 74 61 45 32 32 23 19 0 16 68 10 6 26 52 65 100 94 94 87 90 90 94 94
29 23 13 13 16 19 71 84 97 100 100 100 94 81 81 61 48 26 23 68 52 42 13 19 19 3 0 0 0 0 0 0 3 19 55 97 90 84 81 84 84 90 94
13 10 10 16 13 16 29 61 81 97 94 94 71 68 74 65 45 10 19 32 29 16 6 3 0 0 0 0 0 0 0 0 0 16 45 97 87 81 74 81 87 87 94
3 6 6 13 13 6 13 42 52 77 84 90 84 68 77 65 42 16 13 13 13 10 3 3 0 0 0 0 0 0 0 0 0 23 10 84 81 68 65 71 81 81 84
0 0 3 3 10 10 10 16 26 39 52 65 77 81 48 45 45 29 19 16 10 6 0 0 0 0 0 0 0 0 0 0 0 13 3 45 77 74 74 68 61 68 74
0 0 0 0 0 6 10 13 16 26 32 52 48 39 29 45 35 29 26 16 10 10 3 0 0 0 0 0 0 0 0 0 0 3 6 0 13 61 77 74 71 58 61
0 0 0 0 0 3 6 13 23 26 35 35 35 39 19 13 26 26 32 23 13 16 0 0 0 0 0 0 0 0 0 0 0 0 3 6 0 0 32 84 77 74 61
0 0 0 0 0 0 0 6 13 16 26 29 35 32 23 16 16 32 32 19 10 10 13 3 0 0 0 0 0 0 0 0 0 0 0 0 0 0 0 16 84 65 58
0 0 0 0 0 0 3 6 6 16 23 39 32 42 35 26 26 26 42 35 13 10 6 3 3 3 3 0 0 0 0 0 0 0 0 0 0 0 0 0 6 10 52
0 0 0 0 0 0 3 6 3 6 19 19 39 42 45 39 29 29 26 32 26 13 10 6 3 3 3 0 0 0 0 0 0 0 0 0 0 0 0 0 0 0 3
0 0 0 0 0 0 3 3 3 6 10 16 29 35 39 39 35 26 19 23 26 19 6 6 3 3 3 0 0 0 0 0 0 0 0 0 0 0 0 0 0 0 0
0 0 0 0 0 3 3 6 10 16 16 16 23 35 42 39 39 16 19 19 19 23 16 6 3 3 0 0 0 0 0 0 0 0 0 0 0 0 0 0 0 0 0
0 0 0 0 0 0 3 10 3 10 10 10 13 26 39 39 35 26 16 23 19 16 10 10 10 13 0 0 0 0 0 0 0 0 0 0 0 0 0 0 0 0 0
0 0 0 0 0 0 3 6 6 6 10 13 19 19 32 35 42 35 26 26 23 13 13 19 10 6 3 0 0 0 0 0 0 0 0 0 0 0 0 0 0 0 0
0 0 0 3 0 0 3 3 3 3 6 13 13 16 23 35 35 23 23 13 16 13 16 13 13 10 6 0 0 0 0 0 0 0 0 0 0 0 0 0 0 0 0

GEFSSE_con_cape1000_066.txt.gz
Probability
29 97 100 100 100 100 100 100 100 100 100 97 97 97 94 94 94 97 100 100 100 100 100 100 100 100 100 100 100 100 100 100 100 100 100 100 100 100 100 100 100 100 100
61 100 100 100 100 100 100 100 100 100 100 97 94 97 97 97 97 97 100 100 100 100 100 100 100 100 100 100 100 100 100 100 100 100 100 100 100 100 100 100 100 100 100
94 100 100 100 100 100 100 100 100 100 100 97 97 97 97 97 97 97 100 100 100 97 97 97 97 100 100 100 100 100 100 100 100 100 97 94 97 100 100 100 100 100 100
97 100 100 100 100 100 100 100 100 100 100 97 97 97 97 97 97 97 100 97 97 97 97 97 97 97 100 97 100 100 97 100 100 97 97 97 100 100 100 100 100 97 97
90 100 100 100 100 100 100 100 100 100 100 100 97 94 94 94 97 94 97 97 97 97 97 97 97 97 94 94 97 97 94 97 97 87 77 74 87 94 97 100 97 97 100
94 100 100 100 100 100 100 100 100 100 100 97 97 94 94 90 94 90 90 94 94 97 97 94 94 94 94 97 97 97 94 94 90 74 68 65 84 94 94 94 97 97 94
97 100 100 100 100 100 100 100 100 100 100 97 97 97 94 90 84 87 87 87 84 87 87 87 84 84 81 84 87 90 90 90 74 61 71 61 87 94 94 94 90 94 90
97 97 100 100 100 100 100 100 100 100 97 97 97 97 97 90 87 90 94 87 84 81 84 84 77 77 84 84 84 77 81 87 68 68 68 65 94 94 94 94 90 90 90
65 77 84 94 97 100 100 100 100 97 97 97 97 97 100 97 97 90 90 90 84 74 77 74 74 71 68 74 77 77 77 90 32 55 71 77 97 87 90 94 90 90 90
29 39 48 61 77 97 97 100 100 100 100 100 100 97 97 97 100 94 97 90 87 74 74 68 71 68 74 74 74 77 90 58 23 45 65 77 97 87 90 90 90 90 94
10 10 23 35 45 55 71 90 97 97 97 97 97 100 100 90 87 87 97 94 90 84 77 77 68 65 68 74 84 87 77 6 3 39 52 94 100 94 90 90 90 90 90
3 6 6 10 13 23 48 65 74 81 94 90 84 90 87 71 58 71 81 100 100 94 97 84 94 77 58 6 16 68 23 0 0 19 39 97 100 90 90 87 90 90 90
0 0 0 3 10 10 16 26 42 48 48 52 61 68 68 65 42 52 32 84 100 90 74 74 65 26 6 0 0 0 0 0 0 13 32 100 97 90 90 94 90 94 94
0 0 0 0 0 0 3 13 13 16 23 42 35 45 42 39 29 23 16 23 45 52 29 10 3 3 0 0 0 0 0 0 0 0 23 100 97 90 90 94 90 90 90
0 0 0 0 0 0 0 0 3 3 6 19 19 19 32 29 26 26 10 6 10 10 13 3 3 0 0 0 0 0 0 0 0 0 10 100 97 90 87 90 90 94 90
0 0 0 0 0 0 0 0 0 0 3 10 6 3 16 16 19 13 10 3 3 10 10 3 0 0 0 0 0 0 0 0 0 0 0 71 97 97 90 90 87 87 87
0 0 0 0 0 0 0 0 0 0 0 3 0 3 3 6 3 3 6 3 0 3 3 0 0 0 0 0 0 0 0 0 0 0 0 10 58 90 97 97 94 90 90
0 0 0 0 0 0 0 0 0 0 0 3 0 3 6 3 0 0 0 0 3 0 3 0 0 0 0 0 0 0 0 0 0 0 0 0 0 26 81 97 100 94 90
0 0 0 0 0 0 0 0 0 0 0 0 0 6 3 3 6 3 3 0 3 0 0 3 0 0 0 0 0 0 0 0 0 0 0 0 0 0 13 71 97 90 100
0 0 0 0 0 0 0 0 0 0 0 0 0 3 3 3 6 3 3 0 0 3 0 0 0 0 0 0 0 0 0 0 0 0 0 0 0 0 0 19 26 48 87
0 0 0 0 0 0 0 0 0 0 0 0 0 0 3 0 0 0 3 0 0 0 0 3 0 0 0 0 0 0 0 0 0 0 0 0 0 0 0 3 3 3 10
0 0 0 0 0 0 0 0 0 0 0 0 3 0 0 3 0 3 0 3 0 0 3 3 0 0 0 0 0 0 0 0 0 0 0 0 0 0 0 0 0 0 0
0 0 0 0 0 0 0 0 0 0 0 0 3 3 0 0 0 3 3 6 0 0 0 3 3 0 0 0 0 0 0 0 0 0 0 0 0 0 0 0 0 0 0
0 0 0 0 0 0 0 0 0 0 0 0 0 3 0 0 0 0 0 3 6 3 3 3 6 0 0 0 0 0 0 0 0 0 0 0 0 0 0 0 0 0 0
0 0 0 0 0 0 0 0 0 0 0 0 0 0 0 0 0 0 3 3 3 3 0 3 3 3 0 0 0 0 0 0 0 0 0 0 0 0 0 0 0 0 0
0 0 0 0 0 0 0 0 0 0 0 0 0 0 0 0 0 3 6 10 6 3 0 0 0 0 0 0 0 0 0 0 0 0 0 0 0 0 0 0 0 0 0

GEFSSE_con_cape1000_072.txt.gz
Probability
6 55 100 100 100 100 100 100 100 100 100 100 100 100 100 97 97 100 100 100 100 100 100 100 100 100 100 100 100 100 100 100 100 100 100 100 100 100 100 100 97 97 94
19 81 100 100 100 100 100 100 100 100 97 97 97 97 97 94 97 100 100 100 100 100 100 100 97 100 100 100 100 100 100 100 100 100 100 100 100 100 100 100 97 100 100
61 94 100 100 100 100 100 100 100 100 97 97 94 97 97 97 97 97 100 100 100 100 97 97 97 97 100 100 100 100 100 100 100 97 100 97 97 100 100 100 97 97 100
90 100 100 100 100 100 100 100 100 100 97 97 97 97 97 97 97 97 100 100 97 97 97 97 97 97 100 97 100 97 100 100 97 97 87 94 94 100 100 100 100 97 100
94 100 100 100 100 100 100 100 100 100 97 97 97 97 97 97 100 97 100 97 97 97 97 97 97 97 94 97 97 97 97 97 97 94 71 77 81 94 97 100 100 97 100
90 97 97 100 100 100 100 100 100 100 100 97 97 97 97 94 97 94 94 94 94 97 97 97 90 90 90 94 97 97 94 94 84 52 58 61 81 94 94 97 97 94 90
81 94 94 100 100 100 100 100 100 100 100 100 97 97 97 97 90 90 94 94 94 94 87 84 84 90 90 87 87 90 87 90 45 55 52 58 68 90 90 94 94 94 87
55 55 74 90 97 100 100 100 100 100 100 100 100 97 97 97 87 87 90 90 90 94 90 84 84 87 84 87 84 84 81 84 58 58 55 48 87 90 87 90 87 90 87
26 29 39 52 55 87 90 97 100 100 100 100 100 100 100 97 97 94 94 90 90 87 90 87 81 81 77 81 77 77 74 84 23 39 55 55 87 90 87 87 87 87 87
10 13 10 19 23 29 42 81 94 100 100 100 100 100 100 100 97 94 94 94 90 90 87 81 77 81 74 71 74 77 74 61 13 32 45 52 90 87 87 87 87 87 90
0 0 0 6 6 13 23 32 55 84 90 94 94 97 100 97 84 87 90 97 94 94 90 90 90 81 77 77 81 77 74 3 3 13 29 74 90 87 90 87 90 90 94
0 3 3 0 0 0 0 16 16 23 35 48 61 74 81 74 77 84 84 94 97 94 94 97 97 94 65 26 10 29 3 0 0 6 13 90 90 94 87 87 90 87 94
0 0 0 0 0 0 0 0 3 3 6 13 23 32 42 52 48 71 52 61 77 87 90 90 90 58 26 0 0 0 0 0 0 0 6 77 90 90 87 90 90 90 87
0 0 0 0 0 0 0 0 0 3 3 3 6 6 10 26 26 32 29 26 26 39 48 39 39 23 3 0 0 0 0 0 0 0 0 61 90 90 87 87 84 87 84
0 0 0 0 0 0 0 0 0 0 0 6 6 3 6 10 16 13 10 10 10 13 16 26 16 10 3 0 0 0 0 0 0 0 0 23 94 97 87 84 87 87 87
0 0 0 0 0 0 0 0 0 0 0 0 0 3 6 3 6 6 10 3 6 3 10 10 6 3 6 3 0 0 0 0 0 0 0 3 81 100 94 87 87 87 87
0 0 0 0 0 0 0 0 0 0 0 0 0 0 0 3 6 6 0 3 3 6 3 3 3 3 3 0 0 0 0 0 0 0 0 0 16 77 100 90 90 90 90
0 0 0 0 0 0 0 0 0 0 0 0 0 0 0 0 3 3 0 0 3 3 3 3 3 3 0 0 0 0 0 0 0 0 0 0 3 23 58 94 94 94 94
0 0 0 0 0 0 0 0 0 0 0 0 0 0 0 0 0 0 0 0 3 0 0 3 3 3 0 0 0 0 0 0 0 0 0 0 0 0 6 35 90 90 94
0 0 0 0 0 0 0 0 0 0 0 0 0 0 0 0 0 0 0 0 0 0 0 0 3 0 0 0 0 0 0 0 0 0 0 0 0 0 0 6 39 55 87
0 0 0 0 0 0 0 0 0 0 0 0 0 0 0 0 0 0 0 0 0 0 0 0 0 0 0 0 0 0 0 0 0 0 0 0 0 0 0 0 10 16 23
0 0 0 0 0 0 0 0 0 0 0 0 0 0 0 0 0 0 0 0 0 0 0 0 0 0 0 0 0 0 0 0 0 0 0 0 0 0 0 0 0 3 3
0 0 0 0 0 0 0 0 0 0 0 0 0 0 0 0 0 0 0 0 0 0 0 0 0 0 0 0 0 0 0 0 0 0 0 0 0 0 0 0 0 0 0
0 0 0 0 0 0 0 0 0 0 0 0 0 0 0 0 0 0 0 0 0 0 0 0 0 0 0 0 0 0 0 0 0 0 0 0 0 0 0 0 0 0 0
0 0 0 0 0 0 0 0 0 0 0 0 0 0 0 0 0 0 0 0 0 0 0 0 0 0 0 0 0 0 0 0 0 0 0 0 0 0 0 0 0 0 0
0 0 0 0 0 0 0 0 0 0 0 0 0 0 0 0 0 0 0 0 0 3 3 0 0 0 0 0 0 0 0 0 0 0 0 0 0 0 0 0 0 0 0

GEFSSE_con_cape1000_078.txt.gz
Probability
26 65 100 97 97 97 100 100 100 100 100 100 100 100 100 100 100 100 100 100 100 97 100 100 97 100 100 100 100 100 100 100 100 100 100 100 100 97 94 90 94 87 90
26 74 100 100 100 97 100 100 97 97 97 97 97 97 97 97 97 100 100 100 100 100 100 100 100 100 100 100 100 100 100 100 100 100 97 100 100 100 97 97 97 97 94
35 65 97 100 100 100 100 100 100 97 97 97 97 97 97 97 94 97 100 100 100 100 97 97 97 97 100 100 100 100 100 100 100 100 100 97 97 100 97 100 97 97 94
29 65 71 100 100 100 100 100 100 100 100 94 94 94 97 97 97 97 94 100 100 97 97 97 97 97 97 100 100 97 100 100 97 97 87 84 87 97 97 97 97 94 97
35 58 87 100 97 97 100 100 100 100 100 97 97 97 97 97 97 100 97 100 97 97 97 97 97 94 94 97 97 97 94 94 90 84 87 90 100 97 97 94 87 94 97
42 52 77 97 97 97 100 100 100 100 100 100 100 97 94 97 97 97 94 90 97 94 97 97 94 90 94 94 94 94 90 90 90 84 84 87 90 90 90 97 90 90 94
29 42 68 87 84 94 94 90 94 94 97 97 100 97 94 97 94 94 90 90 94 94 94 90 84 87 90 90 87 90 87 87 81 87 84 84 97 84 90 87 90 90 87
29 23 35 58 74 74 77 81 77 81 81 84 94 97 97 97 94 94 90 87 90 90 87 84 77 77 84 77 87 90 84 87 58 58 81 87 94 87 90 87 87 90 87
13 16 19 19 26 29 42 58 71 68 71 71 87 97 100 100 97 90 90 87 90 90 87 84 81 68 74 71 71 81 74 74 65 68 61 81 87 90 87 90 87 87 84
0 6 6 16 16 16 16 16 26 42 58 65 77 90 94 97 94 94 90 90 90 90 90 84 77 68 68 71 65 74 61 61 61 68 68 74 84 87 87 87 87 84 87
0 0 0 3 3 3 6 3 19 19 26 42 55 68 84 87 87 87 81 87 87 90 94 84 84 74 65 74 71 74 61 58 52 58 58 74 84 90 87 81 87 87 87
0 0 3 3 3 3 0 0 16 16 16 16 26 35 65 71 87 68 48 84 87 90 87 90 87 84 61 61 65 52 32 45 55 42 45 68 74 84 84 87 84 87 90
0 0 0 0 3 6 6 6 10 10 26 3 3 16 32 52 71 71 84 84 81 84 87 87 84 84 65 45 19 13 10 19 32 19 48 58 68 71 87 87 84 87 81
0 0 0 0 0 0 6 6 6 10 6 3 6 6 19 35 45 52 71 68 71 84 87 87 84 65 55 26 10 0 0 10 10 13 58 61 58 77 87 87 84 77 81
0 0 0 0 0 0 6 3 3 3 0 0 3 10 13 29 23 35 52 74 61 71 77 90 65 58 52 23 13 3 0 0 0 6 23 48 52 77 84 87 81 84 77
0 0 0 0 0 0 3 3 6 3 0 3 0 0 6 10 32 35 32 48 55 55 42 77 61 68 58 35 23 10 3 0 0 0 6 42 65 87 90 77 87 84 84
0 0 0 0 0 0 0 3 3 6 3 3 3 3 6 10 13 19 32 29 29 42 32 55 39 48 35 32 16 10 13 3 0 0 0 19 32 42 87 81 84 90 87
0 0 0 0 0 0 0 0 0 3 3 3 3 3 3 6 10 13 23 32 32 45 52 58 55 42 29 32 26 23 13 29 0 0 0 0 16 10 61 87 84 87 90
0 0 0 0 0 0 0 0 0 0 3 3 3 3 6 6 6 16 29 35 32 35 39 32 45 42 19 29 19 23 13 10 3 0 0 0 0 19 16 68 81 84 87
0 0 0 0 0 0 0 0 0 0 3 3 3 3 3 6 3 6 26 26 32 35 42 35 32 52 42 19 3 3 16 10 3 0 0 0 0 0 0 13 52 45 81
0 0 0 0 0 0 0 0 0 0 0 0 0 3 3 3 3 3 13 16 39 35 42 39 45 32 39 13 10 6 10 3 10 3 3 0 3 6 0 6 23 42 61
0 0 0 0 0 0 0 0 0 3 3 0 3 6 3 3 3 3 6 16 29 35 35 29 29 39 29 10 16 6 3 10 13 0 6 13 0 16 10 0 0 26 32
0 0 0 0 0 0 0 3 3 3 3 3 0 0 3 3 3 6 3 10 23 26 32 29 29 32 32 10 6 6 0 0 16 10 0 0 3 13 10 3 0 0 3
0 0 0 0 0 0 0 0 0 0 0 0 0 3 3 3 3 3 3 6 10 13 19 23 16 32 32 26 3 3 0 6 3 10 3 0 3 10 10 10 3 0 3
0 0 0 0 0 0 0 0 0 0 0 0 0 3 3 3 0 0 6 6 6 16 13 23 26 19 26 32 16 3 0 0 0 3 6 0 10 6 13 16 13 16 6
0 0 0 0 0 0 0 0 0 0 0 0 0 0 3 3 0 3 6 10 13 10 10 16 26 29 32 19 26 13 3 3 3 0 0 0 10 13 13 16 23 26 29

GEFSSE_con_cape1000_084.txt.gz
Probability
97 94 97 97 97 97 94 97 97 94 94 94 97 97 97 97 97 100 100 100 100 97 97 97 97 97 100 100 100 100 100 100 100 100 100 97 100 97 97 97 97 100 97
94 94 97 97 94 94 90 97 97 94 97 94 97 97 97 97 97 100 100 100 100 100 100 100 97 97 97 97 97 100 100 97 97 100 100 100 100 97 94 97 97 100 94
94 97 97 97 97 90 94 94 94 94 97 94 94 90 90 94 94 94 97 100 100 100 100 97 97 97 97 97 100 100 97 94 97 100 100 100 97 97 100 97 94 97 87
90 97 97 100 94 90 90 87 90 90 90 90 90 94 90 94 94 94 97 97 97 94 97 97 97 97 97 97 97 100 94 97 100 100 100 100 90 90 97 94 94 90 84
71 84 87 97 90 87 87 81 87 87 90 90 90 90 90 94 90 94 94 94 90 94 97 97 94 94 94 94 94 94 97 97 97 100 97 97 94 90 90 90 90 94 94
68 68 84 81 81 84 81 84 81 87 84 84 81 84 94 90 87 90 94 90 84 90 94 94 90 87 84 87 90 87 84 87 94 94 97 97 97 84 87 81 90 87 90
52 55 55 71 65 65 65 71 74 71 81 81 77 84 84 84 81 84 90 90 90 84 81 90 77 81 87 81 84 87 84 87 87 84 90 97 84 84 81 81 81 84 87
23 26 42 48 45 52 48 48 48 61 55 61 65 77 81 84 84 84 84 90 87 87 87 87 74 68 71 68 71 74 87 90 77 84 87 87 87 84 77 81 84 81 84
10 6 13 19 32 35 39 42 45 45 45 42 55 55 71 74 84 90 90 87 87 90 90 90 84 71 77 77 71 68 84 94 74 58 81 84 94 87 84 81 81 84 81
0 0 0 3 3 10 23 26 19 16 23 39 42 55 65 71 77 87 90 94 94 90 94 90 90 81 74 81 71 77 84 87 39 35 71 87 94 84 84 84 77 81 84
0 3 0 0 0 0 3 3 13 16 23 26 35 48 55 55 48 68 74 87 94 94 94 90 90 87 81 90 87 90 84 39 19 35 61 94 94 87 81 81 77 81 87
0 0 0 0 0 3 3 3 3 3 10 13 19 32 26 19 29 32 35 68 84 90 87 90 97 100 84 65 74 90 58 16 10 42 74 97 94 81 74 81 81 81 84
0 0 0 0 0 0 10 6 6 6 3 6 6 16 10 6 10 13 23 39 45 65 55 87 87 65 58 19 26 45 19 3 10 32 68 97 94 87 81 81 81 74 84
0 0 0 0 0 3 3 3 3 3 3 3 10 13 10 10 6 13 19 23 29 35 42 45 48 42 26 10 10 10 10 10 6 29 68 97 94 87 84 87 84 81 84
0 0 0 0 3 3 3 3 3 3 3 0 3 3 6 6 3 6 10 19 19 16 26 16 13 23 10 6 6 3 0 0 6 29 42 94 97 94 87 84 90 81 84
0 0 0 0 0 0 3 3 3 3 3 3 6 3 3 0 0 6 3 3 10 6 10 13 13 10 0 6 6 3 0 0 0 16 16 84 97 94 94 94 87 84 87
0 0 0 0 0 0 0 0 3 3 6 6 3 0 0 0 0 0 6 6 10 3 6 6 10 10 3 6 10 6 0 0 0 0 19 16 26 97 97 97 90 94 90
0 0 0 0 0 0 0 0 0 0 0 6 6 0 0 3 3 0 3 3 10 6 6 6 10 13 3 3 0 3 0 0 0 0 6 6 3 0 71 94 90 87 94
0 0 0 0 0 0 0 0 0 0 0 0 3 3 3 3 3 0 3 6 3 6 10 3 3 3 0 3 0 3 3 0 0 0 0 0 3 3 0 48 94 90 97
0 0 0 0 0 0 0 0 0 0 0 0 0 0 0 3 3 3 0 0 6 6 6 0 0 3 3 3 3 0 0 0 0 0 0 0 0 3 0 6 45 71 97
0 0 0 0 0 0 0 0 0 0 0 0 0 0 3 3 3 3 0 3 0 3 10 3 3 3 3 0 0 0 0 0 0 0 0 0 0 0 0 3 0 6 32
0 0 0 0 0 0 0 0 0 0 0 0 0 0 0 0 6 3 0 0 0 0 6 3 3 0 0 0 0 0 0 0 0 0 0 3 0 0 0 6 6 10 0
0 0 0 0 0 0 0 0 0 0 0 0 3 0 0 0 0 6 3 0 0 0 0 0 0 3 0 0 0 0 0 0 0 0 0 0 0 0 0 0 0 10 0
0 0 0 0 0 0 0 0 0 0 0 0 0 0 0 0 3 3 3 3 0 0 3 3 3 3 0 0 0 0 0 0 0 0 0 0 0 0 0 0 0 0 3
0 0 0 0 0 0 0 0 0 0 0 0 0 0 0 0 3 3 3 3 0 0 0 3 6 3 0 0 0 0 0 0 0 0 0 0 0 0 0 0 0 0 0
0 0 0 0 0 0 0 0 0 0 0 0 0 0 0 0 0 3 3 3 0 0 0 3 6 6 3 0 0 0 0 0 0 0 0 0 0 0 0 0 0 3 3

GEFSSE_con_cape1000_090.txt.gz
Probability
58 90 100 100 100 100 100 100 100 100 97 97 97 97 97 97 97 97 97 97 100 97 100 100 100 97 97 97 97 97 97 97 100 100 97 94 97 97 100 100 100 97 97
71 94 94 100 100 97 97 97 97 94 100 97 97 97 97 97 97 97 97 94 90 100 100 100 97 94 94 97 97 97 97 97 97 100 100 94 94 97 94 97 100 94 97
77 94 100 97 97 100 97 97 97 100 100 100 97 97 94 94 94 90 97 94 94 94 94 97 97 94 94 90 94 100 97 97 100 100 100 87 94 100 100 97 97 90 94
77 94 94 100 100 97 97 97 94 97 97 94 94 94 94 90 90 94 97 87 87 90 87 87 90 94 90 90 94 94 90 97 97 100 90 90 81 97 97 97 94 87 90
77 90 94 94 97 97 97 94 94 94 94 97 97 94 94 90 94 94 94 90 84 90 94 87 90 90 90 90 87 90 87 90 97 94 71 65 61 87 87 90 90 100 87
55 74 81 87 90 94 97 97 97 94 90 87 94 90 94 90 90 94 94 94 90 87 87 90 87 87 87 81 87 84 81 84 90 61 58 61 58 81 77 87 97 90 94
42 55 68 81 77 81 84 84 90 94 90 90 87 94 97 94 90 94 94 94 90 87 84 84 84 84 81 77 81 87 87 87 77 42 55 52 71 94 77 84 94 97 90
32 35 48 58 65 61 68 74 74 77 77 71 77 84 84 84 87 94 94 97 94 90 90 84 84 84 77 77 77 81 90 87 74 48 42 55 77 90 87 84 87 90 94
10 16 19 23 39 45 55 58 58 52 65 68 68 71 74 81 84 90 94 97 97 94 94 94 90 87 84 81 77 77 90 94 55 29 42 52 87 90 84 90 94 94 94
0 0 0 6 10 13 13 29 39 45 42 55 65 65 68 71 68 71 77 90 94 97 97 94 94 90 90 84 87 84 94 87 42 19 16 45 97 90 84 87 90 94 90
0 0 0 0 0 0 0 6 19 19 19 26 32 29 48 32 32 39 52 68 81 87 87 94 94 94 90 90 94 94 94 58 23 10 10 58 100 94 90 87 90 94 90
0 0 0 0 0 0 0 0 0 0 3 3 6 6 6 6 3 10 26 45 61 77 81 84 84 87 90 71 71 84 71 48 16 10 6 77 97 90 94 90 94 90 90
0 0 0 0 0 0 0 0 0 0 0 0 0 3 3 3 3 3 0 13 26 32 45 61 61 65 68 58 35 26 32 26 10 6 6 94 97 97 97 94 90 94 90
0 0 0 0 0 0 0 0 0 0 0 0 0 0 0 3 0 0 0 0 13 13 19 19 13 26 29 19 6 0 0 6 3 0 0 81 97 97 97 90 94 94 90
0 0 0 0 0 0 0 0 0 0 0 0 0 0 0 0 0 0 0 0 3 3 0 3 3 3 3 3 0 0 0 0 0 0 0 84 97 97 97 94 97 97 94
0 0 0 0 0 0 0 0 0 0 0 0 0 0 0 0 0 0 0 0 0 0 0 0 0 0 0 0 0 0 0 0 0 0 0 32 97 100 100 97 97 100 97
0 0 0 0 0 0 0 0 0 0 0 0 0 0 0 0 0 0 0 0 0 0 0 0 0 0 0 0 0 0 0 0 0 0 0 6 35 90 100 97 97 100 100
0 0 0 0 0 0 0 0 0 0 0 0 0 0 0 0 0 0 0 0 0 0 0 0 0 0 0 0 0 0 0 0 0 0 0 3 0 19 74 100 100 100 100
0 0 0 0 0 0 0 0 0 0 0 0 0 0 0 0 0 0 0 0 0 0 0 0 0 0 0 0 0 0 0 0 0 0 0 0 0 0 16 58 94 100 100
0 0 0 0 0 0 0 0 0 0 0 0 0 0 0 0 0 0 0 0 0 0 0 0 0 0 0 0 0 0 0 0 0 0 0 0 0 0 0 6 39 71 94
0 0 0 0 0 0 0 0 0 0 0 0 0 0 0 0 0 0 0 0 0 0 0 0 0 0 0 0 0 0 0 0 0 0 0 0 0 0 0 0 6 23 61
0 0 0 0 0 0 0 0 0 0 0 0 0 0 0 0 0 0 0 0 0 0 0 0 0 0 0 0 0 0 0 0 0 0 0 0 0 0 0 0 0 0 3
0 0 0 0 0 0 0 0 0 0 0 0 0 0 0 0 0 0 0 0 0 0 0 0 0 0 0 0 0 0 0 0 0 0 0 0 0 0 0 0 0 0 0
0 0 0 0 0 0 0 0 0 0 0 0 0 0 0 0 0 0 0 0 0 0 0 0 0 0 0 0 0 0 0 0 0 0 0 0 0 0 0 0 0 0 0
0 0 0 0 0 0 0 0 0 0 0 0 0 0 0 0 0 0 0 0 0 0 0 0 0 0 0 0 0 0 0 0 0 0 0 0 0 0 0 0 0 0 0
0 0 0 0 0 0 0 0 0 0 0 0 0 0 0 0 0 0 0 0 0 0 0 0 0 0 0 0 0 0 0 0 0 0 0 0 0 0 0 0 0 0 0